BEIDOU-3 IGSO-2 (C39)

Last updated on Oct. 29, 2020, 5:53 a.m. UTC

1 44337U 19035A   20302.59771635 -.00000082  00000-0  00000+0 0  9999
2 44337  55.0721 177.0938 0014142 180.2988 359.9592  1.00251515  5069
UTC
Height (km)
Latitude
Longitude
Inclination
Orbital Period
UTC large
Height (km)
Speed (km/s)
/
Latitude / Longitude
Inclination (degrees)
Orbital Period (minutes)
Azimuth
Elevation
Range (km)
Doppler Factor
iOS Compass Heading
iOS Angle

Next 30 passes for location: Hong Kong

Rise time Rise Azimuth (degrees) Set time Set Azimuth (degrees) Duration Max altitude (degrees)

No matching passes for this satellites